{"data":{"norad_id":40874,"epoch":"2026-05-24T20:38:09.985056Z","epoch_age_seconds":84176,"freshness":"FRESH","line1":"1 40874U 15039A   26144.85983779 -.00000289  00000+0  00000+0 0  9992","line2":"2 40874   0.0097 314.0541 0000602  28.1116 154.3402  1.00271651 39404","mean_motion":1.00271651,"eccentricity":6.02e-5,"inclination_deg":0.0097,"raan_deg":314.0541,"arg_perigee_deg":28.1116,"mean_anomaly_deg":154.3402,"bstar":0,"rev_number":3940,"period_min":1436.0988231858,"perigee_km":35784.094207171,"apogee_km":35789.170845422,"semimajor_km":42164.769526297,"source":"CELESTRAK","updated_at":"2026-05-25T13:38:14.334423Z"}}